This demonstration page uses our WeatherBlox Daily Observations layout. Learn more.

Left ArrowRight Arrow

38.83388, -104.82136

Hourly Observations for January 16, 2015

Temp ( °F °C ) Dew Point ( °F °C ) Humidity (%) Winds ( mph kmh ) Pressure ( in mb ) Visibility ( mi km ) Precip ( " mm )
12:56 am 00:56 Clear 40 4.6 10 -12.1 29 29 WNW 3 6 30.15 1021 10 16 N/A
1:56 am 01:56 Clear 41 5.2 8 -13.2 25 25 W 3 6 30.14 1021 10 16 N/A
2:56 am 02:56 Clear 41 4.9 9 -13 26 26 W 5 7 30.14 1021 10 16 N/A
3:56 am 03:56 Clear 41 5.1 7 -13.7 24 24 W 3 6 30.12 1020 10 16 N/A
4:56 am 04:56 Mostly Clear 42 5.5 6 -14.5 22 22 VRB 1 2 30.11 1020 10 16 N/A
5:56 am 05:56 Mostly Cloudy 42 5.5 7 -13.8 24 24 NW 9 15 30.11 1020 10 16 N/A
6:56 am 06:56 Mostly Clear 41 4.9 7 -14.1 24 24 NW 5 7 30.12 1020 10 16 N/A
7:56 am 07:56 Mostly Cloudy 49 9.4 -2 -18.8 12 12 S 8 13 30.08 1019 10 16 N/A
8:56 am 08:56 Mostly Cloudy 50 9.8 -6 -21 9 9 S 7 11 30.09 1019 10 16 N/A
9:56 am 09:56 Mostly Cloudy 46 7.6 6 -14.7 19 19 NNW 7 11 30.08 1019 10 16 N/A
10:56 am 10:56 Mostly Cloudy 46 7.9 6 -14.5 19 19 NNW 8 13 30.04 1017 10 16 N/A
11:56 am 11:56 Mostly Cloudy 46 7.9 -2 -18.8 13 13 WNW 5 7 30.01 1016 10 16 N/A
12:56 pm 12:56 Mostly Cloudy 49 9.5 -5 -20.3 10 10 S 3 6 29.95 1014 10 16 N/A
1:56 pm 13:56 Mostly Cloudy 52 11.3 -5 -20.5 9 9 S 8 13 29.88 1012 10 16 N/A
2:56 pm 14:56 Sunny 44 6.9 9 -12.8 23 23 N 6 9 29.90 1013 10 16 N/A
3:56 pm 15:56 Sunny 46 7.5 1 -17.2 15 15 S 9 15 29.85 1011 10 16 N/A
4:56 pm 16:56 Sunny 44 6.7 2 -16.4 18 18 WNW 9 15 29.86 1011 10 16 N/A
5:56 pm 17:56 Clear 44 6.8 6 -14.6 20 20 WNW 8 13 29.85 1011 10 16 N/A
6:56 pm 18:56 Mostly Cloudy 45 7.1 9 -12.7 23 23 W 3 6 29.86 1011 10 16 N/A
7:56 pm 19:56 Cloudy 47 8.6 5 -15 17 17 W 10 17 29.80 1009 10 16 N/A
8:56 pm 20:56 Mostly Cloudy 50 10.2 7 -13.7 17 17 VRB 3 6 29.79 1009 10 16 N/A
9:56 pm 21:56 Mostly Clear 48 9 8 -13.3 19 19 SSW 8 13 29.82 1010 10 16 N/A
10:56 pm 22:56 Mostly Cloudy 49 9.4 8 -13.2 19 19 VRB 2 4 29.83 1010 10 16 N/A
11:30 pm 23:30 Mostly Cloudy 45 7 10 -12 25 25 S 13 20 29.80 1009 10 16 N/A
11:56 pm 23:56 Mostly Clear 47 8.1 11 -11.8 23 23 SW 14 22 29.83 1010 10 16 N/A

Powered by AerisWeather